{"data":{"norad_id":63029,"epoch":"2026-05-24T21:02:33.188064Z","epoch_age_seconds":85861,"freshness":"FRESH","line1":"1 63029U 25034A   26144.87677301  .00011235  00000+0  39079-3 0  9992","line2":"2 63029  53.1588 276.8711 0001119  89.2281 270.8848 15.30208025 70578","mean_motion":15.30208025,"eccentricity":0.0001119,"inclination_deg":53.1588,"raan_deg":276.8711,"arg_perigee_deg":89.2281,"mean_anomaly_deg":270.8848,"bstar":0.00039079,"rev_number":7057,"period_min":94.104852181781,"perigee_km":474.42422090524,"apogee_km":475.95799573588,"semimajor_km":6853.3281083206,"source":"CELESTRAK","updated_at":"2026-05-25T13:38:19.864847Z"}}